Time,TemperatureF,DewpointF,PressureIn,WindDirection,WindDirectionDegrees,WindSpeedMPH,WindSpeedGustMPH,Humidity,HourlyPrecipIn,Conditions,Clouds,dailyrainin,SoftwareType,DateUTC
2013-07-01 00:11:00,60.0,58.0,29.93,WSW,250,0.0,0.0,93,0.00,,,0.00,,2013-07-01 05:11:00,
2013-07-01 00:22:00,60.0,58.0,29.93,WSW,250,0.0,0.0,92,0.00,,,0.00,,2013-07-01 05:22:00,
2013-07-01 00:33:00,60.0,58.0,29.93,WSW,250,0.0,0.0,92,0.00,,,0.00,,2013-07-01 05:33:00,
2013-07-01 00:42:00,60.0,57.0,29.93,WSW,250,0.0,0.0,91,0.00,,,0.00,,2013-07-01 05:42:00,
2013-07-01 00:52:00,60.0,57.0,29.93,WSW,250,0.0,0.0,91,0.00,,,0.00,,2013-07-01 05:52:00,
2013-07-01 01:02:00,60.0,57.0,29.93,WSW,250,0.0,0.0,91,0.00,,,0.00,,2013-07-01 06:02:00,
2013-07-01 01:12:00,60.0,58.0,29.93,WSW,250,0.0,0.0,92,0.00,,,0.00,,2013-07-01 06:12:00,
2013-07-01 01:24:00,59.0,57.0,29.93,WSW,250,0.0,0.0,93,0.00,,,0.00,,2013-07-01 06:24:00,
2013-07-01 01:33:00,59.0,57.0,29.93,WSW,250,0.0,0.0,93,0.00,,,0.00,,2013-07-01 06:33:00,
2013-07-01 01:43:00,59.0,57.0,29.93,WSW,250,0.0,0.0,93,0.00,,,0.00,,2013-07-01 06:43:00,
2013-07-01 01:53:00,59.0,57.0,29.94,WSW,250,0.0,0.0,93,0.00,,,0.00,,2013-07-01 06:53:00,
2013-07-01 02:01:00,59.0,57.0,29.94,WSW,250,0.0,0.0,93,0.00,,,0.00,,2013-07-01 07:01:00,
2013-07-01 02:11:00,58.0,56.0,29.94,WSW,250,0.0,0.0,94,0.00,,,0.00,,2013-07-01 07:11:00,
2013-07-01 02:22:00,58.0,56.0,29.94,WSW,250,0.0,0.0,94,0.00,,,0.00,,2013-07-01 07:22:00,
2013-07-01 02:33:00,58.0,56.0,29.94,WSW,250,0.0,0.0,94,0.00,,,0.00,,2013-07-01 07:33:00,
2013-07-01 02:43:00,57.0,55.0,29.94,WSW,250,0.0,0.0,94,0.00,,,0.00,,2013-07-01 07:43:00,
2013-07-01 02:53:00,57.0,56.0,29.94,WSW,250,0.0,0.0,95,0.00,,,0.00,,2013-07-01 07:53:00,
2013-07-01 03:01:00,57.0,56.0,29.94,WSW,250,0.0,0.0,95,0.00,,,0.00,,2013-07-01 08:01:00,
2013-07-01 03:11:00,57.0,56.0,29.94,WSW,250,0.0,0.0,95,0.00,,,0.00,,2013-07-01 08:11:00,
2013-07-01 03:22:00,56.0,55.0,29.94,WSW,250,0.0,0.0,95,0.00,,,0.00,,2013-07-01 08:22:00,
2013-07-01 03:33:00,56.0,55.0,29.94,WSW,250,0.0,0.0,95,0.00,,,0.00,,2013-07-01 08:33:00,
2013-07-01 03:42:00,56.0,55.0,29.94,WSW,250,0.0,0.0,95,0.00,,,0.00,,2013-07-01 08:42:00,
2013-07-01 03:52:00,56.0,55.0,29.94,WSW,250,0.0,0.0,96,0.00,,,0.00,,2013-07-01 08:52:00,
2013-07-01 04:02:00,56.0,55.0,29.94,WSW,250,0.0,0.0,96,0.00,,,0.00,,2013-07-01 09:02:00,
2013-07-01 04:11:00,56.0,55.0,29.94,WSW,250,0.0,0.0,96,0.00,,,0.00,,2013-07-01 09:11:00,
2013-07-01 04:22:00,56.0,55.0,29.95,WSW,250,0.0,0.0,96,0.00,,,0.00,,2013-07-01 09:22:00,
2013-07-01 04:34:00,56.0,55.0,29.95,WSW,250,0.0,0.0,96,0.00,,,0.00,,2013-07-01 09:34:00,
2013-07-01 04:43:00,56.0,55.0,29.95,WSW,250,0.0,0.0,96,0.00,,,0.00,,2013-07-01 09:43:00,
2013-07-01 04:53:00,56.0,55.0,29.95,WSW,250,0.0,0.0,96,0.00,,,0.00,,2013-07-01 09:53:00,
2013-07-01 05:03:00,56.0,55.0,29.95,WSW,250,0.0,0.0,96,0.00,,,0.00,,2013-07-01 10:03:00,
2013-07-01 05:11:00,55.0,54.0,29.95,WSW,250,0.0,0.0,96,0.00,,,0.00,,2013-07-01 10:11:00,
2013-07-01 05:22:00,55.0,54.0,29.95,WSW,250,0.0,0.0,97,0.00,,,0.00,,2013-07-01 10:22:00,
2013-07-01 05:33:00,55.0,54.0,29.95,WSW,250,0.0,0.0,97,0.00,,,0.00,,2013-07-01 10:33:00,
2013-07-01 05:42:00,55.0,54.0,29.96,WSW,250,0.0,0.0,97,0.00,,,0.00,,2013-07-01 10:42:00,
2013-07-01 05:52:00,55.0,54.0,29.96,WSW,250,0.0,0.0,97,0.00,,,0.00,,2013-07-01 10:52:00,
2013-07-01 06:02:00,55.0,54.0,29.96,WSW,250,0.0,0.0,97,0.00,,,0.00,,2013-07-01 11:02:00,
2013-07-01 06:11:00,55.0,54.0,29.96,WSW,250,0.0,0.0,97,0.00,,,0.00,,2013-07-01 11:11:00,
2013-07-01 06:22:00,55.0,54.0,29.97,WSW,250,0.0,0.0,97,0.00,,,0.00,,2013-07-01 11:22:00,
2013-07-01 06:33:00,55.0,54.0,29.97,WSW,250,0.0,0.0,97,0.00,,,0.00,,2013-07-01 11:33:00,
2013-07-01 06:43:00,55.0,54.0,29.97,WSW,250,0.0,0.0,97,0.00,,,0.00,,2013-07-01 11:43:00,
2013-07-01 06:52:00,55.0,54.0,29.97,WSW,250,0.0,0.0,97,0.00,,,0.00,,2013-07-01 11:52:00,
2013-07-01 07:01:00,55.0,54.0,29.97,WSW,250,0.0,0.0,97,0.00,,,0.00,,2013-07-01 12:01:00,
2013-07-01 07:11:00,55.0,54.0,29.98,WSW,250,0.0,0.0,97,0.00,,,0.00,,2013-07-01 12:11:00,
2013-07-01 07:22:00,56.0,55.0,29.98,WSW,250,0.0,0.0,98,0.00,,,0.00,,2013-07-01 12:22:00,
2013-07-01 07:33:00,56.0,55.0,29.98,WSW,250,0.0,0.0,98,0.00,,,0.00,,2013-07-01 12:33:00,
2013-07-01 07:43:00,56.0,55.0,29.98,WSW,250,0.0,0.0,98,0.00,,,0.00,,2013-07-01 12:43:00,
2013-07-01 07:53:00,58.0,58.0,29.98,WSW,250,0.0,0.0,99,0.00,,,0.00,,2013-07-01 12:53:00,
2013-07-01 08:02:00,58.0,58.0,29.98,WSW,250,0.0,0.0,99,0.00,,,0.00,,2013-07-01 13:02:00,
2013-07-01 08:12:00,60.0,60.0,29.98,WSW,250,0.0,1.0,99,0.00,,,0.00,,2013-07-01 13:12:00,
2013-07-01 08:23:00,61.0,61.0,29.99,WSW,249,0.0,0.0,99,0.00,,,0.00,,2013-07-01 13:23:00,
2013-07-01 08:33:00,61.0,61.0,29.99,WSW,249,0.0,0.0,99,0.00,,,0.00,,2013-07-01 13:33:00,
2013-07-01 08:43:00,63.0,62.0,29.99,SW,236,0.0,0.0,95,0.00,,,0.00,,2013-07-01 13:43:00,
2013-07-01 08:53:00,66.0,63.0,29.99,SW,232,0.0,2.0,89,0.00,,,0.00,,2013-07-01 13:53:00,
2013-07-01 09:01:00,66.0,63.0,29.99,SW,232,0.0,2.0,89,0.00,,,0.00,,2013-07-01 14:01:00,
2013-07-01 09:11:00,67.0,62.0,30.00,WSW,246,0.0,4.0,85,0.00,,,0.00,,2013-07-01 14:11:00,
2013-07-01 09:22:00,69.0,63.0,30.00,SSW,197,0.0,2.0,81,0.00,,,0.00,,2013-07-01 14:22:00,
2013-07-01 09:34:00,69.0,63.0,30.00,SSW,197,0.0,2.0,81,0.00,,,0.00,,2013-07-01 14:34:00,
2013-07-01 09:43:00,70.0,62.0,30.00,West,276,0.0,2.0,76,0.00,,,0.00,,2013-07-01 14:43:00,
2013-07-01 09:52:00,71.0,63.0,30.00,West,275,0.0,1.0,75,0.00,,,0.00,,2013-07-01 14:52:00,
2013-07-01 10:02:00,71.0,63.0,30.00,West,275,0.0,1.0,75,0.00,,,0.00,,2013-07-01 15:02:00,
2013-07-01 10:11:00,72.0,63.0,30.00,West,265,0.0,2.0,74,0.00,,,0.00,,2013-07-01 15:11:00,
2013-07-01 10:23:00,74.0,64.0,30.00,ENE,77,0.0,2.0,71,0.00,,,0.00,,2013-07-01 15:23:00,
2013-07-01 10:34:00,74.0,64.0,30.00,ENE,77,0.0,2.0,71,0.00,,,0.00,,2013-07-01 15:34:00,
2013-07-01 10:43:00,76.0,63.0,30.01,SSW,209,0.0,4.0,64,0.00,,,0.00,,2013-07-01 15:43:00,
2013-07-01 10:52:00,75.0,63.0,30.00,SSE,156,0.0,8.0,67,0.00,,,0.00,,2013-07-01 15:52:00,
2013-07-01 11:01:00,75.0,63.0,30.00,SSE,156,0.0,8.0,67,0.00,,,0.00,,2013-07-01 16:01:00,
2013-07-01 11:11:00,76.0,62.0,30.00,SE,126,0.0,2.0,63,0.00,,,0.00,,2013-07-01 16:11:00,
2013-07-01 11:22:00,77.0,63.0,30.00,West,268,1.0,6.0,61,0.00,,,0.00,,2013-07-01 16:22:00,
2013-07-01 11:33:00,77.0,63.0,30.00,West,268,1.0,6.0,61,0.00,,,0.00,,2013-07-01 16:33:00,
2013-07-01 11:44:00,77.0,62.0,30.01,NW,305,0.0,6.0,60,0.00,,,0.00,,2013-07-01 16:44:00,
2013-07-01 11:53:00,77.0,61.0,30.00,NNW,336,1.0,6.0,58,0.00,,,0.00,,2013-07-01 16:53:00,
2013-07-01 12:02:00,77.0,61.0,30.00,NNW,336,1.0,6.0,58,0.00,,,0.00,,2013-07-01 17:02:00,
2013-07-01 12:12:00,79.0,59.0,30.00,SW,236,1.0,5.0,51,0.00,,,0.00,,2013-07-01 17:12:00,
2013-07-01 12:23:00,81.0,62.0,29.99,West,281,0.0,6.0,53,0.00,,,0.00,,2013-07-01 17:23:00,
2013-07-01 12:34:00,81.0,62.0,29.99,West,281,0.0,6.0,53,0.00,,,0.00,,2013-07-01 17:34:00,
2013-07-01 12:43:00,80.0,60.0,29.99,WSW,245,0.0,5.0,50,0.00,,,0.00,,2013-07-01 17:43:00,
2013-07-01 12:53:00,80.0,58.0,29.99,SSE,163,1.0,5.0,47,0.00,,,0.00,,2013-07-01 17:53:00,
2013-07-01 13:02:00,80.0,58.0,29.99,SSE,163,1.0,5.0,47,0.00,,,0.00,,2013-07-01 18:02:00,
2013-07-01 13:11:00,81.0,58.0,29.99,SSE,150,1.0,5.0,46,0.00,,,0.00,,2013-07-01 18:11:00,
2013-07-01 13:22:00,82.0,57.0,29.99,NNW,327,0.0,2.0,43,0.00,,,0.00,,2013-07-01 18:22:00,
2013-07-01 13:33:00,82.0,57.0,29.99,NNW,327,0.0,2.0,43,0.00,,,0.00,,2013-07-01 18:33:00,
2013-07-01 13:43:00,81.0,56.0,29.99,West,272,0.0,4.0,43,0.00,,,0.00,,2013-07-01 18:43:00,
2013-07-01 13:53:00,81.0,56.0,29.98,WSW,252,0.0,3.0,42,0.00,,,0.00,,2013-07-01 18:53:00,
2013-07-01 14:02:00,81.0,56.0,29.98,WSW,252,0.0,3.0,42,0.00,,,0.00,,2013-07-01 19:02:00,
2013-07-01 14:11:00,81.0,56.0,29.98,West,273,1.0,5.0,43,0.00,,,0.00,,2013-07-01 19:11:00,
2013-07-01 14:22:00,83.0,58.0,29.97,SSW,207,1.0,5.0,43,0.00,,,0.00,,2013-07-01 19:22:00,
2013-07-01 14:33:00,83.0,58.0,29.97,SSW,207,1.0,5.0,43,0.00,,,0.00,,2013-07-01 19:33:00,
2013-07-01 14:44:00,82.0,54.0,29.97,West,276,1.0,6.0,38,0.00,,,0.00,,2013-07-01 19:44:00,
2013-07-01 14:52:00,82.0,58.0,29.96,ENE,67,0.0,8.0,44,0.00,,,0.00,,2013-07-01 19:52:00,
2013-07-01 15:02:00,82.0,58.0,29.96,ENE,67,0.0,8.0,44,0.00,,,0.00,,2013-07-01 20:02:00,
2013-07-01 15:11:00,81.0,57.0,29.97,SSW,193,0.0,6.0,44,0.00,,,0.00,,2013-07-01 20:11:00,
2013-07-01 15:22:00,81.0,56.0,29.97,SW,221,0.0,5.0,42,0.00,,,0.00,,2013-07-01 20:22:00,
2013-07-01 15:34:00,81.0,56.0,29.97,SW,221,0.0,5.0,42,0.00,,,0.00,,2013-07-01 20:34:00,
2013-07-01 15:43:00,81.0,56.0,29.97,South,180,0.0,6.0,43,0.00,,,0.00,,2013-07-01 20:43:00,
2013-07-01 15:52:00,80.0,57.0,29.97,WSW,243,0.0,7.0,45,0.00,,,0.00,,2013-07-01 20:52:00,
2013-07-01 16:02:00,80.0,57.0,29.97,WSW,243,0.0,7.0,45,0.00,,,0.00,,2013-07-01 21:02:00,
2013-07-01 16:11:00,79.0,55.0,29.96,WSW,256,0.0,4.0,44,0.00,,,0.00,,2013-07-01 21:11:00,
2013-07-01 16:24:00,80.0,57.0,29.96,SW,224,1.0,8.0,45,0.00,,,0.00,,2013-07-01 21:24:00,
2013-07-01 16:34:00,80.0,57.0,29.96,SW,224,1.0,8.0,45,0.00,,,0.00,,2013-07-01 21:34:00,
2013-07-01 16:43:00,81.0,57.0,29.96,WSW,246,0.0,1.0,44,0.00,,,0.00,,2013-07-01 21:43:00,
2013-07-01 16:53:00,81.0,56.0,29.96,West,261,1.0,6.0,43,0.00,,,0.00,,2013-07-01 21:53:00,
2013-07-01 17:01:00,81.0,56.0,29.96,West,261,1.0,6.0,43,0.00,,,0.00,,2013-07-01 22:01:00,
2013-07-01 17:11:00,80.0,55.0,29.96,North,349,0.0,2.0,42,0.00,,,0.00,,2013-07-01 22:11:00,
2013-07-01 17:24:00,81.0,55.0,29.96,West,263,0.0,4.0,41,0.00,,,0.00,,2013-07-01 22:24:00,
2013-07-01 17:33:00,81.0,55.0,29.96,West,263,0.0,4.0,41,0.00,,,0.00,,2013-07-01 22:33:00,
2013-07-01 17:43:00,81.0,55.0,29.96,SW,234,0.0,5.0,41,0.00,,,0.00,,2013-07-01 22:43:00,
2013-07-01 17:53:00,80.0,53.0,29.96,West,267,0.0,5.0,40,0.00,,,0.00,,2013-07-01 22:53:00,
2013-07-01 18:01:00,80.0,53.0,29.96,West,267,0.0,5.0,40,0.00,,,0.00,,2013-07-01 23:01:00,
2013-07-01 18:11:00,80.0,56.0,29.96,WSW,252,0.0,4.0,44,0.00,,,0.00,,2013-07-01 23:11:00,
2013-07-01 18:22:00,80.0,55.0,29.97,WSW,257,0.0,8.0,43,0.00,,,0.00,,2013-07-01 23:22:00,
2013-07-01 18:33:00,80.0,55.0,29.97,WSW,257,0.0,8.0,43,0.00,,,0.00,,2013-07-01 23:33:00,
2013-07-01 18:44:00,80.0,53.0,29.97,WSW,244,0.0,4.0,39,0.00,,,0.00,,2013-07-01 23:44:00,
2013-07-01 18:53:00,80.0,53.0,29.97,South,184,0.0,2.0,39,0.00,,,0.00,,2013-07-01 23:53:00,
2013-07-01 19:01:00,80.0,53.0,29.97,South,184,0.0,2.0,39,0.00,,,0.00,,2013-07-02 00:01:00,
2013-07-01 19:22:00,78.0,51.0,29.97,SW,219,0.0,5.0,39,0.00,,,0.00,,2013-07-02 00:22:00,
2013-07-01 19:34:00,78.0,51.0,29.97,SW,219,0.0,5.0,39,0.00,,,0.00,,2013-07-02 00:34:00,
2013-07-01 19:43:00,76.0,52.0,29.98,West,270,0.0,0.0,44,0.00,,,0.00,,2013-07-02 00:43:00,
2013-07-01 19:53:00,75.0,55.0,29.98,West,270,0.0,0.0,49,0.00,,,0.00,,2013-07-02 00:53:00,
2013-07-01 20:01:00,75.0,55.0,29.98,West,270,0.0,0.0,49,0.00,,,0.00,,2013-07-02 01:01:00,
2013-07-01 20:11:00,73.0,54.0,29.98,West,270,0.0,1.0,52,0.00,,,0.00,,2013-07-02 01:11:00,
2013-07-01 20:22:00,72.0,54.0,29.98,West,270,0.0,0.0,54,0.00,,,0.00,,2013-07-02 01:22:00,
2013-07-01 20:33:00,72.0,54.0,29.98,West,270,0.0,0.0,54,0.00,,,0.00,,2013-07-02 01:33:00,
2013-07-01 20:43:00,70.0,55.0,29.98,West,270,0.0,0.0,59,0.00,,,0.00,,2013-07-02 01:43:00,
2013-07-01 20:53:00,68.0,55.0,29.99,West,270,0.0,0.0,64,0.00,,,0.00,,2013-07-02 01:53:00,
2013-07-01 21:02:00,68.0,55.0,29.99,West,270,0.0,0.0,64,0.00,,,0.00,,2013-07-02 02:02:00,
2013-07-01 21:12:00,66.0,55.0,29.99,West,270,0.0,0.0,68,0.00,,,0.00,,2013-07-02 02:12:00,
2013-07-01 21:33:00,64.0,55.0,29.99,West,270,0.0,0.0,72,0.00,,,0.00,,2013-07-02 02:33:00,
2013-07-01 21:43:00,63.0,55.0,29.99,West,270,0.0,0.0,75,0.00,,,0.00,,2013-07-02 02:43:00,
2013-07-01 21:53:00,62.0,55.0,30.00,West,270,0.0,0.0,77,0.00,,,0.00,,2013-07-02 02:53:00,
2013-07-01 22:01:00,62.0,55.0,30.00,West,270,0.0,0.0,77,0.00,,,0.00,,2013-07-02 03:01:00,
2013-07-01 22:12:00,62.0,56.0,30.00,West,270,0.0,0.0,80,0.00,,,0.00,,2013-07-02 03:12:00,
2013-07-01 22:24:00,61.0,55.0,30.00,West,270,0.0,0.0,81,0.00,,,0.00,,2013-07-02 03:24:00,
2013-07-01 22:32:00,61.0,55.0,30.00,West,270,0.0,0.0,81,0.00,,,0.00,,2013-07-02 03:32:00,
2013-07-01 22:43:00,60.0,55.0,30.00,West,270,0.0,0.0,83,0.00,,,0.00,,2013-07-02 03:43:00,
2013-07-01 22:53:00,59.0,54.0,30.01,West,270,0.0,0.0,84,0.00,,,0.00,,2013-07-02 03:53:00,
2013-07-01 23:42:00,57.0,53.0,30.01,West,270,0.0,0.0,88,0.00,,,0.00,,2013-07-02 04:42:00,
2013-07-01 23:53:00,57.0,53.0,30.01,West,270,0.0,0.0,88,0.00,,,0.00,,2013-07-02 04:53:00,